,Flow (ft3/s),Incremental Volume (ft3),Totalized Volume (AF)
7/11/2023 10:34,,1460,73.40656566
7/11/2023 10:35,25.16666667,1510,73.44123049
7/11/2023 10:36,25.16666667,1510,73.47589532
7/11/2023 10:37,25.5,1530,73.51101928
7/11/2023 10:38,25.33333333,1520,73.54591368
7/11/2023 10:39,24.5,1470,73.57966024
7/11/2023 10:40,24.33333333,1460,73.61317723
7/11/2023 10:41,24.5,1470,73.64692378
7/11/2023 10:42,24.83333333,1490,73.68112948
7/11/2023 10:43,24.66666667,1480,73.7151056
7/11/2023 10:44,25,1500,73.74954086
7/11/2023 10:45,23.83333333,1430,73.78236915
7/11/2023 10:46,24.66666667,1480,73.81634527
7/11/2023 10:47,24.66666667,1480,73.8503214
7/11/2023 10:48,24.5,1470,73.88406795
7/11/2023 10:49,24.66666667,1480,73.91804408
7/11/2023 10:50,25,1500,73.95247934
7/11/2023 10:51,25.5,1530,73.98760331
7/11/2023 10:52,24.5,1470,74.02134986
7/11/2023 10:53,24.5,1470,74.05509642
7/11/2023 10:54,24.5,1470,74.08884298
7/11/2023 10:55,24.66666667,1480,74.1228191
7/11/2023 10:56,24.33333333,1460,74.15633609
7/11/2023 10:57,24.66666667,1480,74.19031221
7/11/2023 10:58,25.83333333,1550,74.22589532
7/11/2023 10:59,24.83333333,1490,74.26010101
7/11/2023 11:00,24.33333333,1460,74.293618
7/11/2023 11:01,24,1440,74.32667585
7/11/2023 11:02,24.33333333,1460,74.36019284
7/11/2023 11:03,24.83333333,1490,74.39439853
7/11/2023 11:04,24.16666667,1450,74.42768595
7/11/2023 11:05,24.5,1470,74.46143251
7/11/2023 11:06,24.66666667,1480,74.49540863
7/11/2023 11:07,25,1500,74.52984389
7/11/2023 11:08,25,1500,74.56427916
7/11/2023 11:09,24.83333333,1490,74.59848485
7/11/2023 11:10,24.83333333,1490,74.63269054
7/11/2023 11:11,25.33333333,1520,74.66758494
7/11/2023 11:12,25.16666667,1510,74.70224977
7/11/2023 11:13,24.33333333,1460,74.73576676
7/11/2023 11:14,24.66666667,1480,74.76974288
7/11/2023 11:15,24.33333333,1460,74.80325987
7/11/2023 11:16,25,1500,74.83769513
7/11/2023 11:17,24.16666667,1450,74.87098255
7/11/2023 11:18,24.83333333,1490,74.90518825
7/11/2023 11:19,25.33333333,1520,74.94008264
7/11/2023 11:20,25,1500,74.97451791
7/11/2023 11:21,25,1500,75.00895317
7/11/2023 11:22,24.83333333,1490,75.04315886
7/11/2023 11:23,24.5,1470,75.07690542
7/11/2023 11:24,25,1500,75.11134068
7/11/2023 11:25,24.33333333,1460,75.14485767
7/11/2023 11:26,25.16666667,1510,75.1795225
7/11/2023 11:27,25,1500,75.21395776
7/11/2023 11:28,25.33333333,1520,75.24885216
7/11/2023 11:29,24,1440,75.28191001
7/11/2023 11:30,23.5,1410,75.31427916
7/11/2023 11:31,25.33333333,1520,75.34917355
7/11/2023 11:32,24.66666667,1480,75.38314968
7/11/2023 11:33,24.33333333,1460,75.41666667
7/11/2023 11:34,24.5,1470,75.45041322
7/11/2023 11:35,25.33333333,1520,75.48530762
7/11/2023 11:36,24.33333333,1460,75.51882461
7/11/2023 11:37,24.66666667,1480,75.55280073
7/11/2023 11:38,25.33333333,1520,75.58769513
7/11/2023 11:39,24.83333333,1490,75.62190083
7/11/2023 11:40,25.5,1530,75.65702479
7/11/2023 11:41,24.83333333,1490,75.69123049
7/11/2023 11:42,23.83333333,1430,75.72405877
7/11/2023 11:43,24.33333333,1460,75.75757576
7/11/2023 11:44,25.16666667,1510,75.79224059
7/11/2023 11:45,24,1440,75.82529844
7/11/2023 11:46,24.16666667,1450,75.85858586
7/11/2023 11:47,23.5,1410,75.890955
7/11/2023 11:48,24.16666667,1450,75.92424242
7/11/2023 11:49,24.16666667,1450,75.95752984
7/11/2023 11:50,25.5,1530,75.99265381
7/11/2023 11:51,24.83333333,1490,76.0268595
7/11/2023 11:52,24.83333333,1490,76.0610652
7/11/2023 11:53,25.16666667,1510,76.09573003
7/11/2023 11:54,24.83333333,1490,76.12993572
7/11/2023 11:55,25.33333333,1520,76.16483012
7/11/2023 11:56,24.83333333,1490,76.19903581
7/11/2023 11:57,24.66666667,1480,76.23301194
7/11/2023 11:58,25.16666667,1510,76.26767677
7/11/2023 11:59,25,1500,76.30211203
7/11/2023 12:00,24.33333333,1460,76.33562902
7/11/2023 12:01,24.83333333,1490,76.36983471
7/11/2023 12:02,24,1440,76.40289256
7/11/2023 12:03,24.83333333,1490,76.43709826
7/11/2023 12:04,24.16666667,1450,76.47038567
7/11/2023 12:05,24.83333333,1490,76.50459137
7/11/2023 12:06,25,1500,76.53902663
7/11/2023 12:07,23.83333333,1430,76.57185491
7/11/2023 12:08,24.16666667,1450,76.60514233
7/11/2023 12:09,24.66666667,1480,76.63911846
7/11/2023 12:10,24.33333333,1460,76.67263545
7/11/2023 12:11,24.5,1470,76.706382
7/11/2023 12:12,25,1500,76.74081726
7/11/2023 12:13,24.66666667,1480,76.77479339
7/11/2023 12:14,24.5,1470,76.80853994
7/11/2023 12:15,24,1440,76.8415978
7/11/2023 12:16,24.66666667,1480,76.87557392
7/11/2023 12:17,24,1440,76.90863177
7/11/2023 12:18,24.5,1470,76.94237833
7/11/2023 12:19,24.5,1470,76.97612489
7/11/2023 12:20,25,1500,77.01056015
7/11/2023 12:21,24.66666667,1480,77.04453627
7/11/2023 12:22,25.33333333,1520,77.07943067
7/11/2023 12:23,25.5,1530,77.11455464
7/11/2023 12:24,24.33333333,1460,77.14807163
7/11/2023 12:25,24,1440,77.18112948
7/11/2023 12:26,24.66666667,1480,77.2151056
7/11/2023 12:27,25,1500,77.24954086
7/11/2023 12:28,23.83333333,1430,77.28236915
7/11/2023 12:29,23.5,1410,77.31473829
7/11/2023 12:30,24.83333333,1490,77.34894399
7/11/2023 12:31,24.33333333,1460,77.38246097
7/11/2023 12:32,23.16666667,1390,77.41437098
7/11/2023 12:33,24.33333333,1460,77.44788797
7/11/2023 12:34,24.83333333,1490,77.48209366
7/11/2023 12:35,25.66666667,1540,77.5174472
7/11/2023 12:36,24,1440,77.55050505
7/11/2023 12:37,24.83333333,1490,77.58471074
7/11/2023 12:38,24.83333333,1490,77.61891644
7/11/2023 12:39,24.83333333,1490,77.65312213
7/11/2023 12:40,24.66666667,1480,77.68709826
7/11/2023 12:41,25.16666667,1510,77.72176309
7/11/2023 12:42,25,1500,77.75619835
7/11/2023 12:43,24.16666667,1450,77.78948577
7/11/2023 12:44,24.66666667,1480,77.82346189
7/11/2023 12:45,24.83333333,1490,77.85766758
7/11/2023 12:46,24.5,1470,77.89141414
7/11/2023 12:47,24.16666667,1450,77.92470156
7/11/2023 12:48,24.83333333,1490,77.95890725
7/11/2023 12:49,24.5,1470,77.99265381
7/11/2023 12:50,23.66666667,1420,78.02525253
7/11/2023 12:51,24.16666667,1450,78.05853994
7/11/2023 12:52,25,1500,78.09297521
7/11/2023 12:53,24.16666667,1450,78.12626263
7/11/2023 12:54,24.33333333,1460,78.15977961
7/11/2023 12:55,24.66666667,1480,78.19375574
7/11/2023 12:56,25.66666667,1540,78.22910927
7/11/2023 12:57,25.16666667,1510,78.2637741
7/11/2023 12:58,24.33333333,1460,78.29729109
7/11/2023 12:59,24.83333333,1490,78.33149679
7/11/2023 13:00,24,1440,78.36455464
7/11/2023 13:01,25.5,1530,78.3996786
7/11/2023 13:02,24.83333333,1490,78.4338843
7/11/2023 13:03,24.16666667,1450,78.46717172
7/11/2023 13:04,24.66666667,1480,78.50114784
7/11/2023 13:05,25.16666667,1510,78.53581267
7/11/2023 13:06,25,1500,78.57024793
7/11/2023 13:07,23.33333333,1400,78.60238751
7/11/2023 13:08,25,1500,78.63682277
7/11/2023 13:09,23.83333333,1430,78.66965106
7/11/2023 13:10,25.33333333,1520,78.70454545
7/11/2023 13:11,24.83333333,1490,78.73875115
7/11/2023 13:12,25,1500,78.77318641
7/11/2023 13:13,25,1500,78.80762167
7/11/2023 13:14,24.5,1470,78.84136823
7/11/2023 13:15,24.16666667,1450,78.87465565
7/11/2023 13:16,25,1500,78.90909091
7/11/2023 13:17,25.16666667,1510,78.94375574
7/11/2023 13:18,23.83333333,1430,78.97658402
7/11/2023 13:19,23.83333333,1430,79.0094123
7/11/2023 13:20,24.16666667,1450,79.04269972
7/11/2023 13:21,25,1500,79.07713499
7/11/2023 13:22,24.16666667,1450,79.11042241
7/11/2023 13:23,24.16666667,1450,79.14370983
7/11/2023 13:24,24.33333333,1460,79.17722681
7/11/2023 13:25,23.83333333,1430,79.2100551
7/11/2023 13:26,23.83333333,1430,79.24288338
7/11/2023 13:27,24.33333333,1460,79.27640037
7/11/2023 13:28,24.66666667,1480,79.31037649
7/11/2023 13:29,25.33333333,1520,79.34527089
7/11/2023 13:30,25,1500,79.37970615
7/11/2023 13:31,24.16666667,1450,79.41299357
7/11/2023 13:32,24,1440,79.44605142
7/11/2023 13:33,24.66666667,1480,79.48002755
7/11/2023 13:34,24.66666667,1480,79.51400367
7/11/2023 13:35,25,1500,79.54843893
7/11/2023 13:36,25.83333333,1550,79.58402204
7/11/2023 13:37,24.66666667,1480,79.61799816
7/11/2023 13:38,25.66666667,1540,79.6533517
7/11/2023 13:39,25.66666667,1540,79.68870523
7/11/2023 13:40,24.33333333,1460,79.72222222
7/11/2023 13:41,24.83333333,1490,79.75642792
7/11/2023 13:42,24.33333333,1460,79.7899449
7/11/2023 13:43,25.16666667,1510,79.82460973
7/11/2023 13:44,25.16666667,1510,79.85927456
7/11/2023 13:45,24.66666667,1480,79.89325069
7/11/2023 13:46,24.66666667,1480,79.92722681
7/11/2023 13:47,24.83333333,1490,79.96143251
7/11/2023 13:48,25.5,1530,79.99655647
7/11/2023 13:49,25.5,1530,80.03168044
7/11/2023 13:50,24.5,1470,80.065427
7/11/2023 13:51,23.83333333,1430,80.09825528
7/11/2023 13:52,24.5,1470,80.13200184
7/11/2023 13:53,24.5,1470,80.16574839
7/11/2023 13:54,24,1440,80.19880624
7/11/2023 13:55,24.33333333,1460,80.23232323
7/11/2023 13:56,24.66666667,1480,80.26629936
7/11/2023 13:57,24,1440,80.29935721
7/11/2023 13:58,23.33333333,1400,80.33149679
7/11/2023 13:59,24.33333333,1460,80.36501377
7/11/2023 14:00,23.83333333,1430,80.39784206
7/11/2023 14:01,25.16666667,1510,80.43250689
7/11/2023 14:02,24.16666667,1450,80.46579431
7/11/2023 14:03,24.5,1470,80.49954086
7/11/2023 14:04,23.83333333,1430,80.53236915
7/11/2023 14:05,24.66666667,1480,80.56634527
7/11/2023 14:06,23.83333333,1430,80.59917355
7/11/2023 14:07,24.33333333,1460,80.63269054
7/11/2023 14:08,24.16666667,1450,80.66597796
7/11/2023 14:09,23.33333333,1400,80.69811754
7/11/2023 14:10,24.66666667,1480,80.73209366
7/11/2023 14:11,24.66666667,1480,80.76606979
7/11/2023 14:12,23.66666667,1420,80.7986685
7/11/2023 14:13,24.5,1470,80.83241506
7/11/2023 14:14,24,1440,80.86547291
7/11/2023 14:15,23.83333333,1430,80.89830119
7/11/2023 14:16,24.16666667,1450,80.93158861
7/11/2023 14:17,24.66666667,1480,80.96556474
7/11/2023 14:18,24.83333333,1490,80.99977043
7/11/2023 14:19,25,1500,81.03420569
7/11/2023 14:20,25.16666667,1510,81.06887052
7/11/2023 14:21,24.66666667,1480,81.10284665
7/11/2023 14:22,24.5,1470,81.1365932
7/11/2023 14:23,24.5,1470,81.17033976
7/11/2023 14:24,24.66666667,1480,81.20431589
7/11/2023 14:25,23.83333333,1430,81.23714417
7/11/2023 14:26,24.33333333,1460,81.27066116
7/11/2023 14:27,24.5,1470,81.30440771
7/11/2023 14:28,24.66666667,1480,81.33838384
7/11/2023 14:29,24.33333333,1460,81.37190083
7/11/2023 14:30,25.16666667,1510,81.40656566
7/11/2023 14:31,24.33333333,1460,81.44008264
7/11/2023 14:32,24.66666667,1480,81.47405877
7/11/2023 14:33,24.33333333,1460,81.50757576
7/11/2023 14:34,24.5,1470,81.54132231
7/11/2023 14:35,24.83333333,1490,81.57552801
7/11/2023 14:36,22.83333333,1370,81.60697888
7/11/2023 14:37,24.16666667,1450,81.6402663
7/11/2023 14:38,23.66666667,1420,81.67286501
7/11/2023 14:39,25,1500,81.70730028
7/11/2023 14:40,24.66666667,1480,81.7412764
7/11/2023 14:41,25.33333333,1520,81.7761708
7/11/2023 14:42,24.83333333,1490,81.81037649
7/11/2023 14:43,23.5,1410,81.84274564
7/11/2023 14:44,23.33333333,1400,81.87488522
7/11/2023 14:45,24.33333333,1460,81.9084022
7/11/2023 14:46,24.5,1470,81.94214876
7/11/2023 14:47,24.83333333,1490,81.97635445
7/11/2023 14:48,25,1500,82.01078972
7/11/2023 14:49,24.33333333,1460,82.0443067
7/11/2023 14:50,23.83333333,1430,82.07713499
7/11/2023 14:51,24.66666667,1480,82.11111111
7/11/2023 14:52,24.83333333,1490,82.1453168
7/11/2023 14:53,25.33333333,1520,82.1802112
7/11/2023 14:54,23.83333333,1430,82.21303949
7/11/2023 14:55,24.16666667,1450,82.24632691
7/11/2023 14:56,24,1440,82.27938476
7/11/2023 14:57,24.83333333,1490,82.31359045
7/11/2023 14:58,23.83333333,1430,82.34641873
7/11/2023 14:59,24.5,1470,82.38016529
7/11/2023 15:00,24,1440,82.41322314
7/11/2023 15:01,25,1500,82.4476584
7/11/2023 15:02,24.16666667,1450,82.48094582
7/11/2023 15:03,24,1440,82.51400367
7/11/2023 15:04,24.33333333,1460,82.54752066
7/11/2023 15:05,25.33333333,1520,82.58241506
7/11/2023 15:06,24,1440,82.61547291
7/11/2023 15:07,25,1500,82.64990817
7/11/2023 15:08,24.33333333,1460,82.68342516
7/11/2023 15:09,24.66666667,1480,82.71740129
7/11/2023 15:10,24,1440,82.75045914
7/11/2023 15:11,25.16666667,1510,82.78512397
7/11/2023 15:12,24.83333333,1490,82.81932966
7/11/2023 15:13,25,1500,82.85376492
7/11/2023 15:14,25,1500,82.88820018
7/11/2023 15:15,24.33333333,1460,82.92171717
7/11/2023 15:16,23.66666667,1420,82.95431589
7/11/2023 15:17,23.83333333,1430,82.98714417
7/11/2023 15:18,25.16666667,1510,83.021809
7/11/2023 15:19,24.5,1470,83.05555556
7/11/2023 15:20,23.33333333,1400,83.08769513
7/11/2023 15:21,24.16666667,1450,83.12098255
7/11/2023 15:22,23.33333333,1400,83.15312213
7/11/2023 15:23,23.83333333,1430,83.18595041
7/11/2023 15:24,23.5,1410,83.21831956
7/11/2023 15:25,23,1380,83.25
7/11/2023 15:26,22.5,1350,83.28099174
7/11/2023 15:27,22.5,1350,83.31198347
7/11/2023 15:28,22.33333333,1340,83.34274564
7/11/2023 15:29,23.5,1410,83.37511478
7/11/2023 15:30,23.16666667,1390,83.40702479
7/11/2023 15:31,23.5,1410,83.43939394
7/11/2023 15:32,22.66666667,1360,83.47061524
7/11/2023 15:33,22.16666667,1330,83.50114784
7/11/2023 15:34,22.66666667,1360,83.53236915
7/11/2023 15:35,22,1320,83.56267218
7/11/2023 15:36,22.33333333,1340,83.59343434
7/11/2023 15:37,22.33333333,1340,83.62419651
7/11/2023 15:38,23.33333333,1400,83.65633609
7/11/2023 15:39,23.16666667,1390,83.6882461
7/11/2023 15:40,23.66666667,1420,83.72084481
7/11/2023 15:41,22.16666667,1330,83.75137741
7/11/2023 15:42,23,1380,83.78305785
7/11/2023 15:43,22.83333333,1370,83.81450872
7/11/2023 15:44,23.16666667,1390,83.84641873
7/11/2023 15:45,22.83333333,1370,83.87786961
7/11/2023 15:46,23,1380,83.90955005
7/11/2023 15:47,23,1380,83.94123049
7/11/2023 15:48,23,1380,83.97291093
7/11/2023 15:49,22.16666667,1330,84.00344353
7/11/2023 15:50,22.66666667,1360,84.03466483
7/11/2023 15:51,23.16666667,1390,84.06657484
7/11/2023 15:52,23.5,1410,84.09894399
7/11/2023 15:53,22.33333333,1340,84.12970615
7/11/2023 15:54,23.33333333,1400,84.16184573
7/11/2023 15:55,23,1380,84.19352617
7/11/2023 15:56,23.5,1410,84.22589532
7/11/2023 15:57,22.83333333,1370,84.25734619
7/11/2023 15:58,22.83333333,1370,84.28879706
7/11/2023 15:59,23.16666667,1390,84.32070707
7/11/2023 16:00,23.83333333,1430,84.35353535
7/11/2023 16:01,23.66666667,1420,84.38613407
7/11/2023 16:02,23.5,1410,84.41850321
7/11/2023 16:03,23.33333333,1400,84.45064279
7/11/2023 16:04,23.5,1410,84.48301194
7/11/2023 16:05,23.16666667,1390,84.51492195
7/11/2023 16:06,22.83333333,1370,84.54637282
7/11/2023 16:07,22.5,1350,84.57736455
7/11/2023 16:08,22.83333333,1370,84.60881543
7/11/2023 16:09,23.16666667,1390,84.64072544
7/11/2023 16:10,23,1380,84.67240588
7/11/2023 16:11,24.16666667,1450,84.7056933
7/11/2023 16:12,23.5,1410,84.73806244
7/11/2023 16:13,23.16666667,1390,84.76997245
7/11/2023 16:14,23.83333333,1430,84.80280073
7/11/2023 16:15,22.83333333,1370,84.83425161
7/11/2023 16:16,22.33333333,1340,84.86501377
7/11/2023 16:17,22.5,1350,84.89600551
7/11/2023 16:18,23,1380,84.92768595
7/11/2023 16:19,23,1380,84.95936639
7/11/2023 16:20,22.33333333,1340,84.99012856
7/11/2023 16:21,22.66666667,1360,85.02134986
7/11/2023 16:22,23.16666667,1390,85.05325987
7/11/2023 16:23,23.33333333,1400,85.08539945
7/11/2023 16:24,23.33333333,1400,85.11753903
7/11/2023 16:25,22.83333333,1370,85.1489899
7/11/2023 16:26,22.83333333,1370,85.18044077
7/11/2023 16:27,23.5,1410,85.21280992
7/11/2023 16:28,23.66666667,1420,85.24540863
7/11/2023 16:29,23.33333333,1400,85.27754821
7/11/2023 16:30,23,1380,85.30922865
7/11/2023 16:31,23.66666667,1420,85.34182736
7/11/2023 16:32,23.66666667,1420,85.37442608
7/11/2023 16:33,22.83333333,1370,85.40587695
7/11/2023 16:34,23.33333333,1400,85.43801653
7/11/2023 16:35,23,1380,85.46969697
7/11/2023 16:36,24.16666667,1450,85.50298439
7/11/2023 16:37,23.33333333,1400,85.53512397
7/11/2023 16:38,23.16666667,1390,85.56703398
7/11/2023 16:39,23.33333333,1400,85.59917355
7/11/2023 16:40,22.83333333,1370,85.63062443
7/11/2023 16:41,23.5,1410,85.66299357
7/11/2023 16:42,23,1380,85.69467401
7/11/2023 16:43,22.66666667,1360,85.72589532
7/11/2023 16:44,24,1440,85.75895317
7/11/2023 16:45,23.83333333,1430,85.79178145
7/11/2023 16:46,23.5,1410,85.8241506
7/11/2023 16:47,23.66666667,1420,85.85674931
7/11/2023 16:48,23.16666667,1390,85.88865932
7/11/2023 16:49,23.16666667,1390,85.92056933
7/11/2023 16:50,23.5,1410,85.95293848
7/11/2023 16:51,23.83333333,1430,85.98576676
7/11/2023 16:52,23.66666667,1420,86.01836547
7/11/2023 16:53,22.83333333,1370,86.04981635
7/11/2023 16:54,23.5,1410,86.08218549
7/11/2023 16:55,23.83333333,1430,86.11501377
7/11/2023 16:56,23.83333333,1430,86.14784206
7/11/2023 16:57,23,1380,86.1795225
7/11/2023 16:58,22.83333333,1370,86.21097337
7/11/2023 16:59,22.83333333,1370,86.24242424
7/11/2023 17:00,23.83333333,1430,86.27525253
7/11/2023 17:01,22.83333333,1370,86.3067034
7/11/2023 17:02,24.16666667,1450,86.33999082
7/11/2023 17:03,23.66666667,1420,86.37258953
7/11/2023 17:04,23.66666667,1420,86.40518825
7/11/2023 17:05,23.83333333,1430,86.43801653
7/11/2023 17:06,23.33333333,1400,86.47015611
7/11/2023 17:07,22.66666667,1360,86.50137741
7/11/2023 17:08,23.5,1410,86.53374656
7/11/2023 17:09,22.5,1350,86.56473829
7/11/2023 17:10,23.66666667,1420,86.59733701
7/11/2023 17:11,23.5,1410,86.62970615
7/11/2023 17:12,23.16666667,1390,86.66161616
7/11/2023 17:13,23.16666667,1390,86.69352617
7/11/2023 17:14,23,1380,86.72520661
7/11/2023 17:15,24.16666667,1450,86.75849403
7/11/2023 17:16,23.83333333,1430,86.79132231
7/11/2023 17:17,23.66666667,1420,86.82392103
7/11/2023 17:18,24,1440,86.85697888
7/11/2023 17:19,23.33333333,1400,86.88911846
7/11/2023 17:20,23.16666667,1390,86.92102847
7/11/2023 17:21,23.33333333,1400,86.95316804
7/11/2023 17:22,23.16666667,1390,86.98507805
7/11/2023 17:23,23.5,1410,87.0174472
7/11/2023 17:24,24,1440,87.05050505
7/11/2023 17:25,23.83333333,1430,87.08333333
7/11/2023 17:26,24.16666667,1450,87.11662075
7/11/2023 17:27,23.33333333,1400,87.14876033
7/11/2023 17:28,23.83333333,1430,87.18158861
7/11/2023 17:29,23.33333333,1400,87.21372819
7/11/2023 17:30,23.66666667,1420,87.24632691
7/11/2023 17:31,23.33333333,1400,87.27846648
7/11/2023 17:32,23.33333333,1400,87.31060606
7/11/2023 17:33,23.16666667,1390,87.34251607
7/11/2023 17:34,23.83333333,1430,87.37534435
7/11/2023 17:35,23.83333333,1430,87.40817264
7/11/2023 17:36,24,1440,87.44123049
7/11/2023 17:37,23.83333333,1430,87.47405877
7/11/2023 17:38,23.16666667,1390,87.50596878
7/11/2023 17:39,23.83333333,1430,87.53879706
7/11/2023 17:40,23,1380,87.5704775
7/11/2023 17:41,23.66666667,1420,87.60307622
7/11/2023 17:42,23.66666667,1420,87.63567493
7/11/2023 17:43,23.33333333,1400,87.66781451
7/11/2023 17:44,23.5,1410,87.70018365
7/11/2023 17:45,23,1380,87.7318641
7/11/2023 17:46,23.5,1410,87.76423324
7/11/2023 17:47,23.33333333,1400,87.79637282
7/11/2023 17:48,23.5,1410,87.82874197
7/11/2023 17:49,23.66666667,1420,87.86134068
7/11/2023 17:50,23.33333333,1400,87.89348026
7/11/2023 17:51,23.66666667,1420,87.92607897
7/11/2023 17:52,24.16666667,1450,87.95936639
7/11/2023 17:53,22.83333333,1370,87.99081726
7/11/2023 17:54,24.16666667,1450,88.02410468
7/11/2023 17:55,23.16666667,1390,88.05601469
7/11/2023 17:56,23.83333333,1430,88.08884298
7/11/2023 17:57,23.5,1410,88.12121212
7/11/2023 17:58,23.33333333,1400,88.1533517
7/11/2023 17:59,23.83333333,1430,88.18617998
7/11/2023 18:00,23.83333333,1430,88.21900826
7/11/2023 18:01,23.33333333,1400,88.25114784
7/11/2023 18:02,23.5,1410,88.28351699
7/11/2023 18:03,23.5,1410,88.31588613
7/11/2023 18:04,24,1440,88.34894399
7/11/2023 18:05,24.16666667,1450,88.3822314
7/11/2023 18:06,23.66666667,1420,88.41483012
7/11/2023 18:07,24.33333333,1460,88.44834711
7/11/2023 18:08,22.83333333,1370,88.47979798
7/11/2023 18:09,23.66666667,1420,88.51239669
7/11/2023 18:10,22.5,1350,88.54338843
7/11/2023 18:11,24,1440,88.57644628
7/11/2023 18:12,23.16666667,1390,88.60835629
7/11/2023 18:13,23.16666667,1390,88.6402663
7/11/2023 18:14,23.16666667,1390,88.67217631
7/11/2023 18:15,23.16666667,1390,88.70408632
7/11/2023 18:16,22.83333333,1370,88.73553719
7/11/2023 18:17,23,1380,88.76721763
7/11/2023 18:18,23.16666667,1390,88.79912764
7/11/2023 18:19,23.83333333,1430,88.83195592
7/11/2023 18:20,23.83333333,1430,88.86478421
7/11/2023 18:21,24.33333333,1460,88.89830119
7/11/2023 18:22,23.16666667,1390,88.9302112
7/11/2023 18:23,22.83333333,1370,88.96166208
7/11/2023 18:24,24.16666667,1450,88.99494949
7/11/2023 18:25,23.5,1410,89.02731864
7/11/2023 18:26,23.5,1410,89.05968779
7/11/2023 18:27,23.83333333,1430,89.09251607
7/11/2023 18:28,23.16666667,1390,89.12442608
7/11/2023 18:29,24.66666667,1480,89.1584022
7/11/2023 18:30,24,1440,89.19146006
7/11/2023 18:31,24.16666667,1450,89.22474747
7/11/2023 18:32,24.16666667,1450,89.25803489
7/11/2023 18:33,24.16666667,1450,89.29132231
7/11/2023 18:34,22.83333333,1370,89.32277319
7/11/2023 18:35,24.5,1470,89.35651974
7/11/2023 18:36,23.16666667,1390,89.38842975
7/11/2023 18:37,23.66666667,1420,89.42102847
7/11/2023 18:38,23.83333333,1430,89.45385675
7/11/2023 18:39,23.83333333,1430,89.48668503
7/11/2023 18:40,23.83333333,1430,89.51951331
7/11/2023 18:41,23.33333333,1400,89.55165289
7/11/2023 18:42,23.66666667,1420,89.58425161
7/11/2023 18:43,22.83333333,1370,89.61570248
7/11/2023 18:44,23.83333333,1430,89.64853076
7/11/2023 18:45,22.66666667,1360,89.67975207
7/11/2023 18:46,23.66666667,1420,89.71235078
7/11/2023 18:47,23.83333333,1430,89.74517906
7/11/2023 18:48,23.66666667,1420,89.77777778
7/11/2023 18:49,23.33333333,1400,89.80991736
7/11/2023 18:50,23.66666667,1420,89.84251607
7/11/2023 18:51,23.5,1410,89.87488522
7/11/2023 18:52,23.66666667,1420,89.90748393
7/11/2023 18:53,23.66666667,1420,89.94008264
7/11/2023 18:54,23.83333333,1430,89.97291093
7/11/2023 18:55,23.66666667,1420,90.00550964
7/11/2023 18:56,24,1440,90.03856749
7/11/2023 18:57,23.16666667,1390,90.0704775
7/11/2023 18:58,23.16666667,1390,90.10238751
7/11/2023 18:59,24,1440,90.13544536
7/11/2023 19:00,23.33333333,1400,90.16758494
7/11/2023 19:01,23.83333333,1430,90.20041322
7/11/2023 19:02,23.5,1410,90.23278237
7/11/2023 19:03,22.5,1350,90.2637741
7/11/2023 19:04,23.5,1410,90.29614325
7/11/2023 19:05,23.83333333,1430,90.32897153
7/11/2023 19:06,23.5,1410,90.36134068
7/11/2023 19:07,24.33333333,1460,90.39485767
7/11/2023 19:08,24.33333333,1460,90.42837466
7/11/2023 19:09,22.83333333,1370,90.45982553
7/11/2023 19:10,23.33333333,1400,90.49196511
7/11/2023 19:11,23.33333333,1400,90.52410468
7/11/2023 19:12,23.33333333,1400,90.55624426
7/11/2023 19:13,22.5,1350,90.587236
7/11/2023 19:14,23.66666667,1420,90.61983471
7/11/2023 19:15,23.16666667,1390,90.65174472
7/11/2023 19:16,24,1440,90.68480257
7/11/2023 19:17,23.66666667,1420,90.71740129
7/11/2023 19:18,23.66666667,1420,90.75
7/11/2023 19:19,24.5,1470,90.78374656
7/11/2023 19:20,22.83333333,1370,90.81519743
7/11/2023 19:21,23.33333333,1400,90.84733701
7/11/2023 19:22,24,1440,90.88039486
7/11/2023 19:23,23.83333333,1430,90.91322314
7/11/2023 19:24,24,1440,90.94628099
7/11/2023 19:25,24.33333333,1460,90.97979798
7/11/2023 19:26,24,1440,91.01285583
7/11/2023 19:27,23.16666667,1390,91.04476584
7/11/2023 19:28,23.16666667,1390,91.07667585
7/11/2023 19:29,24,1440,91.1097337
7/11/2023 19:30,23.83333333,1430,91.14256198
7/11/2023 19:31,24.66666667,1480,91.17653811
7/11/2023 19:32,24.16666667,1450,91.20982553
7/11/2023 19:33,24.16666667,1450,91.24311295
7/11/2023 19:34,24.5,1470,91.2768595
7/11/2023 19:35,23.83333333,1430,91.30968779
7/11/2023 19:36,23.83333333,1430,91.34251607
7/11/2023 19:37,24.33333333,1460,91.37603306
7/11/2023 19:38,23.33333333,1400,91.40817264
7/11/2023 19:39,23.66666667,1420,91.44077135
7/11/2023 19:40,23.83333333,1430,91.47359963
7/11/2023 19:41,23.33333333,1400,91.50573921
7/11/2023 19:42,23.33333333,1400,91.53787879
7/11/2023 19:43,23.66666667,1420,91.5704775